User: anonymous   Login
Location: Sandbanks Provincial Park
(47.6073°N, 57.6428°W)
Time: 19:18:08
(UTC-02:-30)
Language:

Cosmos 2034 Rocket - Orbit

View from above orbital plane
View from above orbital plane
View from above satellite
View from above satellite

Ground track
Ground track

The orbit data is extracted from the following two-line orbital elements,

1 20150U 89059B   15208.53456185 -.00000011  00000-0 -27068-4 0  9993
2 20150 082.9377 246.4424 0030033 052.9972 054.6761 13.75599858305439
Epoch (UTC): 27 July 2015 12:49:46
Eccentricity: 0.0030033
inclination: 82.9377°
perigee height: 957 km
apogee height: 1001 km
right ascension of ascending node: 246.4424°
argument of perigee: 52.9972°
revolutions per day: 13.75599858
mean anomaly at epoch: 54.6761°
orbit number at epoch: 30543

The dashed part of the orbit path shows where the satellite is in the earth's shadow,  

DLR